This is the latest recevied weather packets stored in our database for station/object K5BOU. If no packets are shown the sender has not sent any weather packets the latest 10 day(s).
| Time | Temp. | Humidity | Pressure | Rain* | Wind** | Luminosity | Snow |
|---|---|---|---|---|---|---|---|
| 1788382814 | 35.56° C | 60% | 1009.9 hPa | 0 mm | - | 586 W/m² | - |
| 1788382508 | 36.11° C | 62% | 1009.9 hPa | 0 mm | - | 341 W/m² | - |
| 1788382204 | 35.56° C | 61% | 1009.8 hPa | 0 mm | - | 311 W/m² | - |
| 1788381903 | 35.56° C | 61% | 1010.2 hPa | 0 mm | - | 495 W/m² | - |
| 1788381598 | 35.56° C | 59% | 1010.1 hPa | 0 mm | - | 266 W/m² | - |
| 1788381294 | 35.56° C | 59% | 1010 hPa | 0 mm | - | 390 W/m² | - |
| 1788380992 | 35.56° C | 61% | 1010.2 hPa | 0 mm | - | 342 W/m² | - |
| 1788380689 | 35.56° C | 59% | 1010.2 hPa | 0 mm | - | 314 W/m² | - |
| 1788380385 | 35.56° C | 59% | 1010.3 hPa | 0 mm | - | 334 W/m² | - |
| 1788380080 | 36.11° C | 58% | 1010.2 hPa | 0 mm | - | 378 W/m² | - |
| 1788379780 | 36.11° C | 58% | 1010.5 hPa | 0 mm | - | 378 W/m² | - |
| 1788379475 | 36.11° C | 60% | 1010.4 hPa | 0 mm | - | 494 W/m² | - |
| 1788379171 | 36.11° C | 59% | 1010.7 hPa | 0 mm | - | 499 W/m² | - |
| 1788378866 | 35.56° C | 59% | 1010.6 hPa | 0 mm | - | 473 W/m² | - |
| 1788378566 | 35.56° C | 60% | 1010.5 hPa | 0 mm | - | 422 W/m² | - |
| 1788378260 | 35.56° C | 60% | 1010.8 hPa | 0 mm | - | 485 W/m² | - |
| 1788377955 | 35.56° C | 61% | 1010.9 hPa | 0 mm | - | 468 W/m² | - |
| 1788377651 | 35.56° C | 60% | 1011.1 hPa | 0 mm | - | 521 W/m² | - |
| 1788377349 | 36.11° C | 60% | 1011 hPa | 0 mm | - | 525 W/m² | - |
| 1788377049 | 35.56° C | 60% | 1011.2 hPa | 0 mm | - | 640 W/m² | - |
| 1788376742 | 35.56° C | 61% | 1011.2 hPa | 0 mm | - | 638 W/m² | - |
| 1788376438 | 35.56° C | 62% | 1011.3 hPa | 0 mm | - | 474 W/m² | - |
| 1788376138 | 35.56° C | 61% | 1011.3 hPa | 0 mm | - | 511 W/m² | - |
| 1788375833 | 35.56° C | 63% | 1011.3 hPa | 0 mm | - | 714 W/m² | - |
| 1788375529 | 34.44° C | 63% | 1011.6 hPa | 0 mm | - | 580 W/m² | - |
* Rain latest hour (hover to see other rain measurements)
** Current wind speed in m/s (hover to see current wind gust speed)